User: anonymous   Login
Location: Unspecified
(0.0000°N, 0.0000°E)
Time: 06:10:44
(UTC+00:00)
Language:

TOPSAT - Orbit

View from above orbital plane
View from above orbital plane
View from above satellite
View from above satellite

Ground track
Ground track

The orbit data is extracted from the following two-line orbital elements,

1 28891U 05043B   17296.79126210  .00000069  00000-0  22846-4 0  9994
2 28891  97.9030  86.3811 0018108 109.1678 251.1495 14.61295560639133
Epoch (UTC): 23 October 2017 18:59:25
Eccentricity: 0.0018108
inclination: 97.9030°
perigee height: 676 km
apogee height: 702 km
right ascension of ascending node: 86.3811°
argument of perigee: 109.1678°
revolutions per day: 14.61295560
mean anomaly at epoch: 251.1495°
orbit number at epoch: 63913

The dashed part of the orbit path shows where the satellite is in the earth's shadow,  

DLR